ESCO2: Skeleton Creek at Enid, OK

Data processed at Mon Jan 21 2019 20:32


All information presented herein is the property of the government of the United States of America and may be revised or deleted at any time without prior notice.
Dissemination of this information without the expressed written consent of the Public Affairs Office, Tulsa District U.S. Army Corps of Engineers is strictly prohibited.
These data are gathered electronically and, as presented, have not undergone any form of quality control. These data are not guaranteed to be valid or correct.
Go to home page.
Go to station list.
Go to home page.

Downstream station:


Previous Day
Next Day
Current Day
    
SHEF ID:       ESCO2     Skeleton Creek at Enid, OK
STATION TYPE:  

               PRECIP     STAGE  RIV-FLOW  WTR-TEMP   CONDUCT  BAT-LOAD
                   in        ft       cfs         F   umho/cm      volt
              Ccp-Rev   Ccp-Rev   Ccp-Rev   Ccp-Rev   Ccp-Rev   Ccp-Rev
(US/Central)
01/21 00:00      0.00      2.69         9     35.20      1196     13.05
01/21 01:00      0.00      2.71        10     34.83      1200     12.97
01/21 02:00      0.00      2.67         9     34.43      1202     12.97
01/21 03:00      0.00      2.73        11     34.12      1203     12.89
01/21 04:00      0.00      2.65         8     33.85      1205     12.89
01/21 05:00      0.00      2.66         8     33.51      1208     12.89
01/21 06:00      0.00      2.65         8     33.24      1210     12.89
01/21 07:00      0.00      2.65         8     33.08      1211     12.81
01/21 08:00      0.00      2.65         8     32.94      1213     12.81
01/21 09:00      0.00      2.64         7     33.19      1214     12.81
01/21 10:00      0.00      2.64         7     34.74      1212     12.97
01/21 11:00      0.00      2.64         7     37.09      1211     13.44
01/21 12:00      0.00      2.65         8     40.17      1209     13.60
01/21 13:00      0.00      2.67         9     42.75      1210     13.60
01/21 14:00      0.00      2.71        10     45.48      1211     13.53
01/21 15:00      0.00      2.68         9     46.71      1213     13.53
01/21 16:00      0.00      2.66         8     46.49      1216     13.44
01/21 17:00      0.00      2.63         7     44.76      1218     13.60
01/21 18:00      0.00      2.66         8     43.34      1218     13.44
01/21 19:00      0.00      2.65         8     42.73      1217     13.29
01/21 20:00      0.00      2.66         8     42.37      1216     13.29
01/21 21:00      ----      ----      ----      ----      ----      ----
01/21 22:00      ----      ----      ----      ----      ----      ----
01/21 23:00      ----      ----      ----      ----      ----      ----